STARLINK D (59925 NORAD) Tracking and Keplerian Element Data

This shows tracking and keplerian element data for the satellite.

Feedback or suggestion? Click here.




ElementValue
Catalog59925
NameSTARLINK D
Epoch Orbit228
Epoch Day160.16667824
Epoch Year2024
RAAN22.4854
Inclination43.0026
Eccentricity0.0002102
Argument of Perigee279.4092
Mean Anonmoly141.9412
Mean Motion15.92080946
Decay Rate-0.00898631
L11 59925U 24106D 24160.16667824 -.00898631 24888-3 -25961-2 0 9991
L22 59925 43.0026 22.4854 0002102 279.4092 141.9412 15.92080946 2288



Live tracking and technical data element details for STARLINK D (NORAD 59925). STARLINK D can be tracked NOW for your location showing map with azimuth and elevation plus other details from your city location.







IsCatalogInMostPopularTable: catalog: 59925, numindb: 10
Update: records affected: 1



GetName: 59925 STARLINK D

Hit Count: updated at: Thu, 25 Jul 2024 01:24:32 GMT